GFSCGP_850_rhum_021.txt.gz
RH
11 16 17 14 10 11 11 12 13 10 13 34 32 28 26 20 23 26 30 31 34 36 35 38 40 41 44 48 51 55 59 62 69 73 72 68 70 70 68 63 63 73 72 77
13 16 13 10 10 9 10 12 13 11 14 28 39 34 30 25 22 26 26 30 31 34 33 36 38 40 43 46 49 53 56 62 71 71 72 73 69 77 69 67 73 77 73 72
14 13 11 10 10 11 11 12 12 13 15 21 38 41 43 25 21 24 23 26 29 30 32 33 37 39 42 45 49 51 56 60 66 76 78 82 78 69 73 73 71 68 66 74
12 10 10 11 10 9 14 10 10 11 14 27 28 43 44 27 25 26 23 22 26 29 30 31 37 38 41 43 46 50 54 60 64 72 80 79 68 64 71 71 64 62 66 71
12 12 11 10 8 6 10 10 10 11 13 23 21 26 38 33 32 28 22 22 21 24 27 31 34 37 39 43 45 48 52 59 62 68 70 72 63 63 72 74 70 72 68 75
10 7 8 9 7 5 5 9 11 12 13 22 23 23 34 31 28 24 21 21 21 22 23 24 30 35 38 41 46 48 50 55 60 65 69 69 76 72 71 58 58 60 70 67
13 11 7 7 8 6 6 9 15 19 20 23 21 24 34 23 20 22 22 20 21 23 23 24 31 36 38 40 45 48 50 54 59 62 68 68 78 78 60 60 69 65 64 67
16 19 12 8 8 8 7 7 12 25 22 20 18 25 23 17 16 19 19 17 19 19 24 24 23 32 37 40 43 47 51 54 56 61 66 64 74 72 61 72 79 62 60 60
14 16 10 8 8 7 9 8 6 11 14 21 16 15 12 18 16 17 18 16 18 16 24 25 25 28 35 39 39 44 53 54 54 58 64 64 63 68 58 67 72 71 65 54
12 20 11 9 8 7 7 7 9 8 14 18 15 18 19 18 20 23 22 20 17 16 19 25 26 26 30 33 36 41 48 53 54 57 61 63 54 65 60 60 66 76 75 62
9 12 12 11 10 10 10 8 8 9 9 14 20 16 13 19 22 23 19 16 14 16 18 24 25 25 26 33 36 40 46 53 59 57 58 62 59 53 63 59 58 67 73 63
9 12 15 13 10 8 8 10 10 12 17 18 12 13 11 9 18 17 17 14 12 13 20 23 24 28 30 32 38 39 42 48 53 56 57 56 61 51 51 53 51 55 66 71
10 11 16 15 11 9 9 8 9 8 14 17 25 14 7 7 16 12 16 15 12 11 18 23 25 30 32 31 36 41 41 43 48 54 56 57 59 56 38 38 34 41 51 59
22 11 12 15 14 14 16 10 9 9 11 11 10 10 9 14 21 12 10 11 11 13 11 21 26 27 32 32 34 40 43 40 44 48 53 56 56 47 30 27 28 36 36 60
15 18 12 11 11 12 11 13 10 10 8 13 11 10 10 12 26 23 13 11 12 10 10 19 26 27 27 30 32 36 40 43 40 45 50 50 48 49 43 37 32 28 45 47
31 30 21 16 11 9 10 11 11 9 9 10 11 12 11 12 15 21 16 15 10 10 15 15 22 22 22 24 28 32 37 44 39 41 42 46 57 58 54 46 42 47 45 54
37 33 30 24 17 18 15 11 12 13 10 11 12 9 11 12 14 18 18 13 10 10 13 16 17 21 21 21 22 28 31 40 41 37 42 42 54 56 56 56 59 65 67 71
32 32 33 26 26 34 19 14 12 13 15 11 11 13 15 17 10 9 6 7 11 8 14 14 12 14 22 22 22 22 31 37 40 36 38 41 41 47 53 59 61 69 75 76
22 26 31 37 28 22 17 15 15 16 15 14 22 20 19 21 12 11 9 7 7 6 10 10 14 13 16 20 25 25 31 34 38 38 36 38 40 41 50 54 61 66 73 79
19 19 31 33 32 29 19 14 13 20 33 34 35 35 32 28 34 36 22 20 17 10 6 7 11 13 14 19 22 28 30 34 37 36 36 36 41 42 46 54 59 64 73 77
34 42 36 30 27 24 20 12 20 35 41 39 33 34 36 40 38 24 20 16 16 15 11 7 10 9 11 14 21 29 35 35 34 36 41 40 41 42 47 54 60 71 77 83
72 87 56 39 34 35 29 26 28 44 38 36 31 30 29 26 24 20 20 19 13 16 20 12 9 6 5 10 17 28 38 37 42 43 44 45 49 54 57 66 73 75 76 80
68 74 92 49 56 49 43 46 36 50 55 57 56 44 37 50 54 46 49 45 39 33 26 18 10 11 11 12 23 30 38 45 54 52 52 63 68 73 79 88 78 69 94 98
61 78 80 70 52 43 41 35 59 62 68 66 68 68 52 55 55 55 54 55 53 50 44 43 41 44 52 42 38 39 46 50 61 64 67 77 79 86 90 92 78 91 100 94
91 87 86 78 80 85 60 61 64 63 64 68 68 69 71 59 63 60 61 67 68 65 66 57 49 52 54 55 58 60 61 63 70 76 84 89 86 85 90 94 99 97 87 94
92 94 97 100 97 96 74 61 59 59 61 60 62 63 67 65 65 67 70 71 67 66 62 68 77 70 73 69 71 72 72 72 76 80 70 76 90 96 95 98 96 93 92 95

GFSCGP_850_rhum_024.txt.gz
RH
12 20 22 19 17 14 15 15 16 13 12 31 31 31 27 40 44 46 48 48 48 45 40 39 44 47 54 50 53 60 65 66 68 68 64 61 62 69 66 64 72 68 75 73
14 18 17 15 14 12 12 14 15 14 12 29 34 28 24 32 36 40 43 44 46 46 43 40 42 41 51 50 52 56 59 62 67 69 70 68 61 59 61 66 72 69 72 76
15 15 13 15 15 14 12 12 12 14 13 34 34 37 34 28 25 31 38 39 41 42 42 41 41 40 45 49 50 51 52 56 63 66 68 71 72 63 66 74 69 64 72 67
15 13 13 13 15 14 18 10 10 12 15 29 30 44 42 35 31 30 31 35 38 39 39 37 40 40 40 42 45 48 50 54 58 60 68 74 74 69 65 71 68 68 62 68
18 15 14 15 14 13 14 11 13 13 15 18 19 38 39 36 35 31 29 31 34 36 37 36 36 38 40 40 42 45 48 52 54 57 63 71 75 68 66 59 71 70 69 72
14 11 12 12 11 12 10 9 12 14 16 25 20 29 39 37 32 27 26 26 30 33 35 34 32 35 38 39 41 43 46 50 52 56 60 64 66 69 65 60 74 73 69 73
16 14 10 10 14 11 10 11 16 18 19 23 19 33 28 28 28 22 23 25 25 30 32 33 36 39 40 40 41 42 44 49 53 55 58 62 64 66 56 63 74 69 67 67
21 22 15 10 11 12 12 10 14 20 25 24 19 32 23 21 22 23 20 23 24 25 29 31 31 32 35 39 40 41 43 46 51 55 57 61 65 63 57 65 71 62 60 63
21 18 12 11 11 10 12 11 8 14 19 23 21 18 17 20 20 23 23 23 23 23 24 26 30 31 34 38 38 39 42 45 48 51 54 59 64 62 54 66 65 64 66 65
12 19 13 9 12 11 11 10 10 13 14 15 16 19 18 17 23 24 23 22 23 23 23 23 26 28 32 32 34 37 39 43 44 48 50 54 60 62 52 65 63 72 70 70
9 14 13 13 13 14 14 12 11 10 11 12 20 13 13 15 19 25 25 22 22 24 23 24 24 25 24 30 38 35 39 44 45 46 49 53 56 64 52 52 58 69 74 75
12 11 14 12 12 11 11 12 12 12 15 15 9 10 9 12 13 24 24 20 20 21 22 22 23 27 31 35 39 33 37 40 44 45 48 51 53 60 58 47 51 62 69 74
36 17 16 18 14 12 13 12 10 15 15 13 20 12 9 9 12 19 20 18 17 20 20 21 25 30 28 34 36 34 35 35 40 47 48 51 53 57 58 43 44 49 60 67
37 34 19 18 15 12 14 11 11 10 12 12 12 12 9 10 12 19 10 7 13 16 14 17 26 28 27 30 34 33 33 33 36 44 50 50 51 51 50 43 38 36 47 61
53 51 23 20 15 10 13 14 11 12 10 11 10 12 11 10 10 11 6 14 17 16 15 16 26 32 29 30 36 34 33 33 33 41 44 46 46 47 47 45 40 37 38 48
55 55 42 33 19 11 11 11 12 11 10 10 11 11 10 8 9 12 10 6 16 13 12 10 18 22 27 28 31 33 34 32 38 40 38 39 44 48 49 46 43 37 35 39
65 57 50 48 22 12 15 12 13 13 12 10 12 11 14 12 16 19 11 18 17 16 15 13 20 21 31 27 25 32 29 33 38 38 39 40 40 43 44 43 46 41 35 37
55 51 47 49 36 24 13 10 9 12 13 13 10 11 14 11 8 7 7 14 14 11 10 18 21 22 24 22 23 23 31 35 37 38 38 39 39 39 38 40 39 44 45 47
40 46 47 49 47 24 17 18 13 15 14 18 15 14 14 15 14 25 16 9 8 8 9 10 15 22 21 27 23 27 34 37 43 43 38 37 36 39 40 36 31 45 57 58
28 30 40 39 42 36 18 14 18 20 27 37 35 37 30 26 29 34 21 17 13 8 9 10 10 19 24 20 20 27 28 31 32 32 30 30 36 39 38 36 43 45 52 55
70 64 49 44 46 33 21 17 20 29 34 39 40 39 37 43 38 27 23 18 14 13 11 10 9 10 12 19 25 25 23 28 21 22 28 44 38 40 36 42 48 51 51 63
79 86 78 55 57 37 49 44 24 36 48 37 37 32 35 44 42 40 29 18 13 14 11 13 13 9 10 11 14 14 26 19 20 26 40 48 48 44 48 46 52 57 63 67
88 78 84 78 89 66 76 76 71 60 62 65 49 47 40 48 52 39 40 42 37 25 22 18 11 12 9 9 11 13 19 21 25 34 40 45 51 51 49 49 61 68 67 71
79 83 82 77 84 87 89 85 83 75 75 74 62 56 56 65 66 59 48 41 36 40 42 30 20 14 11 10 11 14 11 13 27 35 42 48 49 50 56 62 60 64 68 75
85 78 89 86 86 90 77 81 78 78 74 74 76 71 72 67 69 65 60 57 52 53 62 64 58 53 59 46 11 14 19 33 44 44 50 57 60 69 76 81 86 78 73 68
94 95 85 98 96 92 92 74 65 65 67 68 66 71 74 67 68 68 69 70 65 62 62 62 65 66 64 85 96 48 45 50 54 56 54 62 74 81 95 99 93 75 67 86

GFSCGP_850_rhum_030.txt.gz
RH
26 33 34 29 22 18 21 20 19 16 15 31 34 37 59 56 58 63 69 73 74 66 59 57 54 59 60 62 60 60 65 58 62 62 52 65 70 69 72 71 71 70 70 70
27 31 28 24 22 20 19 20 21 16 15 25 27 33 56 57 57 59 66 69 71 64 73 57 58 60 58 57 53 54 55 58 59 63 56 56 63 64 69 73 74 72 70 74
24 25 24 23 24 24 23 23 20 18 14 22 35 40 46 56 51 54 62 64 65 67 66 62 56 56 55 58 56 52 52 51 55 61 65 62 66 68 69 75 77 76 71 71
22 18 21 25 25 22 30 19 16 15 17 21 29 41 45 50 59 52 51 61 63 63 64 61 55 63 62 54 55 55 54 55 54 59 64 66 64 63 63 66 71 75 71 68
21 19 19 22 21 20 22 15 16 15 17 18 22 34 38 46 65 58 52 52 54 55 56 55 47 44 50 56 52 52 53 53 54 54 59 64 67 64 62 64 67 66 70 68
17 14 15 16 15 18 17 15 18 23 25 28 21 29 28 58 46 53 49 50 52 51 50 50 44 44 48 53 53 50 51 52 53 54 58 62 63 64 64 67 70 57 65 68
18 16 14 13 16 17 17 23 32 28 28 27 21 26 18 30 38 40 43 44 48 50 51 50 50 49 43 43 47 45 45 47 50 53 54 60 60 63 62 63 65 60 63 66
24 26 17 16 15 18 22 23 38 34 32 25 24 25 21 15 26 30 31 32 35 42 46 49 46 46 44 37 39 42 41 43 45 49 50 53 57 61 62 63 67 62 59 57
27 24 17 13 15 13 22 23 19 22 23 24 25 22 15 17 20 30 28 27 29 30 39 43 44 42 38 40 35 36 37 37 41 42 45 49 52 57 59 59 62 66 61 57
19 26 20 14 13 15 16 17 22 27 27 28 24 19 22 26 21 23 34 29 25 26 27 33 38 42 41 36 33 36 37 35 36 36 40 44 47 49 52 56 59 62 62 64
39 20 17 21 21 17 19 18 19 20 27 27 28 21 19 18 24 17 20 25 20 21 23 25 29 30 32 36 37 34 37 37 37 38 39 42 46 47 50 51 54 60 62 60
56 33 26 20 14 15 14 16 18 22 23 23 24 18 11 13 16 22 18 13 15 13 13 19 22 28 33 37 38 34 33 37 34 33 36 39 42 43 46 48 50 56 64 53
54 49 31 19 17 14 18 18 16 14 22 20 20 18 9 12 14 9 12 11 15 13 15 21 27 30 29 32 36 32 32 29 32 35 34 36 40 42 42 44 47 52 60 60
52 59 45 41 34 34 28 17 18 18 19 18 17 16 13 12 14 14 11 8 8 14 11 15 24 27 27 27 27 30 29 30 32 35 37 36 35 37 38 40 44 47 54 62
57 56 51 45 45 39 34 30 26 21 18 20 16 17 17 14 17 14 6 9 14 10 10 11 16 24 26 26 27 30 28 32 34 36 37 32 34 36 36 39 41 42 48 55
63 58 59 57 39 36 38 30 24 22 19 20 17 18 14 12 8 11 9 8 8 7 6 5 8 20 25 25 25 26 25 26 32 33 29 37 42 36 35 37 40 41 43 52
65 68 66 62 48 44 38 23 23 21 17 16 19 17 13 14 16 14 9 7 6 5 5 5 6 8 16 24 23 24 24 28 28 28 28 33 40 38 34 35 38 40 42 47
67 73 70 73 56 52 26 27 23 17 15 17 16 15 16 14 9 7 6 6 6 6 5 5 5 6 9 14 22 22 24 23 25 24 32 35 37 35 38 38 36 38 40 43
58 67 70 67 70 40 32 49 65 76 52 21 16 16 17 11 11 12 9 8 6 6 6 6 6 7 12 16 18 23 26 26 28 39 40 34 32 34 36 35 33 37 40 41
56 50 56 74 69 61 38 69 65 72 78 53 48 17 15 18 20 17 7 8 7 6 6 6 8 13 15 18 20 22 23 23 25 28 25 28 31 32 33 29 33 37 40 40
81 74 74 63 70 60 45 76 75 54 44 86 92 91 28 20 13 8 7 9 10 9 9 13 14 14 18 19 19 19 22 24 19 24 31 35 38 34 30 39 42 42 51 48
84 90 93 78 82 63 59 66 73 78 90 92 96 98 85 19 10 10 13 22 23 17 16 17 14 12 13 18 23 28 30 25 36 41 44 44 39 35 38 44 51 71 74 74
80 78 86 61 57 59 44 76 80 89 92 92 98 96 76 37 21 26 34 40 37 28 23 24 20 23 24 22 34 41 48 49 50 49 46 45 50 56 66 57 67 56 67 69
74 66 76 75 61 71 67 81 85 93 88 94 100 100 86 53 75 79 72 72 72 64 58 53 44 45 45 47 45 43 37 42 45 46 48 52 57 64 76 81 74 77 58 24
79 81 78 81 62 85 85 81 81 91 91 96 98 92 100 94 96 90 86 76 70 65 62 56 52 54 52 50 45 42 39 38 39 50 51 55 59 62 69 80 85 80 86 88
78 77 89 79 62 74 89 86 86 93 91 91 89 88 93 92 85 77 74 68 63 59 55 50 46 43 44 42 38 35 35 34 34 31 31 35 52 63 70 80 91 99 100 99

GFSCGP_850_rhum_033.txt.gz
RH
23 21 23 19 17 14 13 13 15 15 13 22 21 22 28 44 47 50 57 59 61 62 64 70 76 81 66 58 59 62 60 50 50 45 40 37 46 49 64 65 62 70 70 72
26 23 16 16 19 17 14 14 15 15 13 15 16 22 25 40 46 47 55 57 58 58 63 69 73 78 70 56 58 59 56 56 44 43 46 42 43 53 66 65 70 69 70 70
17 15 14 19 21 20 18 13 13 14 13 15 19 17 26 36 42 45 53 52 58 56 60 65 71 72 68 54 52 53 53 56 51 54 58 52 49 56 66 68 72 72 73 71
14 13 17 19 19 19 17 14 12 14 16 18 17 21 27 26 43 44 47 54 53 55 59 63 65 73 65 48 49 50 51 55 57 58 62 62 50 54 58 64 65 69 76 73
17 17 20 22 17 18 16 14 14 12 15 16 16 21 17 33 39 42 42 46 52 52 55 61 64 46 56 61 48 50 51 52 55 54 57 60 64 60 60 64 62 66 72 75
12 14 15 18 17 17 15 17 16 17 15 22 18 18 18 19 25 29 36 41 48 51 52 57 62 59 65 51 51 52 52 53 54 55 55 55 59 63 64 62 62 64 68 73
16 15 14 13 18 17 16 16 20 22 21 20 15 20 19 15 18 15 26 37 42 48 51 52 60 64 52 58 42 44 49 51 54 54 55 55 54 58 60 61 63 66 68 62
19 22 14 13 15 16 18 15 15 20 16 13 18 20 16 13 12 17 18 24 36 44 46 48 50 52 43 42 46 43 42 42 46 50 52 53 54 55 58 61 62 64 66 58
17 16 13 13 11 13 17 19 12 13 18 16 12 13 13 13 13 15 19 21 29 34 41 45 49 46 39 40 38 35 35 35 41 41 43 47 51 54 54 57 57 62 66 67
19 21 14 12 11 11 14 13 18 16 19 19 15 18 13 18 14 15 18 18 22 25 32 38 45 49 44 38 35 35 33 28 29 37 38 39 42 47 51 52 54 56 62 67
27 20 19 15 15 15 15 17 14 13 14 13 13 10 14 16 21 17 14 14 18 22 25 28 34 36 39 48 48 40 37 35 32 30 34 36 39 42 47 49 50 51 56 61
40 21 21 19 13 11 12 14 15 16 23 16 12 10 11 12 12 17 13 14 17 21 19 23 23 33 42 47 50 44 39 39 34 31 31 32 33 36 40 45 45 48 50 55
39 35 28 23 16 14 15 14 14 13 13 21 17 12 9 12 12 12 14 16 12 11 12 19 26 30 30 32 38 44 35 31 33 36 34 34 34 36 37 38 42 44 47 50
42 38 32 24 23 27 27 18 15 14 18 18 17 13 12 12 14 13 14 11 11 12 9 11 14 17 21 27 30 34 35 37 36 38 34 35 33 33 34 36 38 40 43 47
39 41 38 34 30 29 30 26 23 21 17 20 15 15 13 13 13 12 12 15 11 13 8 11 12 10 13 22 28 31 32 37 36 36 35 29 30 34 35 35 36 39 41 43
38 36 38 34 26 24 30 26 25 23 21 20 18 17 12 14 13 14 12 12 10 15 6 11 8 11 10 14 19 25 29 29 34 31 26 27 32 35 35 34 34 37 38 40
45 36 34 32 31 29 30 24 22 21 19 18 21 16 13 13 14 16 15 14 13 11 6 6 5 7 6 7 9 17 21 29 32 29 29 32 31 35 34 37 36 35 36 37
46 56 39 28 31 37 20 21 22 22 16 15 15 15 14 14 14 14 12 10 10 7 6 6 6 6 5 5 8 11 22 24 26 30 34 36 35 33 38 37 34 34 36 35
44 42 40 31 30 25 22 20 32 42 26 35 26 16 13 12 13 16 15 11 9 8 7 7 7 6 6 6 7 15 25 28 31 30 30 29 28 31 38 41 33 35 35 38
42 44 42 37 30 31 27 22 33 54 40 55 59 49 30 14 17 13 11 9 8 8 7 7 7 6 7 7 13 19 23 27 27 24 24 28 34 38 38 35 40 43 42 36
58 53 53 41 39 27 22 32 59 55 35 63 64 66 69 61 27 16 15 17 11 8 9 8 7 6 8 14 18 20 26 26 21 31 37 41 48 47 51 61 67 74 73 83
45 62 59 49 45 39 22 22 33 52 64 62 64 66 76 78 75 67 40 24 16 13 14 12 11 12 13 14 20 25 28 28 30 29 29 32 35 43 60 63 68 66 78 95
59 45 52 45 30 30 33 41 32 57 63 60 74 71 82 87 83 77 44 59 53 38 27 27 23 16 14 19 27 29 30 34 35 37 39 42 47 50 61 63 68 76 46 74
49 52 66 53 39 42 35 36 42 70 62 75 83 86 94 97 88 65 72 72 76 51 43 50 47 32 27 25 26 32 35 34 35 40 44 50 52 56 66 82 66 75 87 90
51 53 57 58 51 56 52 45 49 54 65 70 84 95 99 99 91 89 95 98 91 72 59 52 48 44 43 43 41 40 38 36 35 39 42 45 48 52 59 68 74 44 39 81
63 62 69 62 47 50 47 47 50 81 65 84 71 98 100 100 100 100 100 89 76 70 59 49 45 41 38 35 32 31 30 29 29 28 28 30 34 41 58 72 60 74 80 90